Terminal Aerodrome Forecast
Issued by NWS

Home | Current Version | Previous Version | Text Only | Print | Product List | Glossary On
Versions: 1 2 3 4 5 6 7 8 9 10 11 12 13 14 15 16 17
429
FTUS42 KJAX 311721
TAFVQQ
TAF
KVQQ 311721Z 3118/0118 28006KT P6SM VCTS SCT040CB SCT120
     FM312100 11007KT P6SM VCTS SCT050CB SCT120
     FM010200 VRB03KT P6SM FEW050 SCT100
     FM011400 28005KT P6SM SCT030=

USA.gov is the U.S. government's official web portal to all federal, state and local government web resources and services.